N42LR EGBB-EGGP

Flight info

Callsign N42LR
Flight time N/A
Altitude 8000
Route LUVUM DCT NANTI
Aircraft DA42/L-SBDGRY/S

Departure

Time 2026-05-04 07:20
Airport Birmingham Airport (EGBB)

Arrival

Time N/A
Airport Liverpool John Lennon Airport (EGGP)
Time Latitude Longitude Altitude Speed Heading
2026-05-04 07:06 52.44947 -1.73230 325 ft 0 kts 146°
2026-05-04 07:08 52.44959 -1.73244 325 ft 0 kts 145°
2026-05-04 07:09 52.44960 -1.73244 325 ft 0 kts 145°
2026-05-04 07:12 52.44945 -1.73392 325 ft 0 kts 241°
2026-05-04 07:14 52.44900 -1.73552 325 ft 0 kts 227°
2026-05-04 07:15 52.44882 -1.73592 325 ft 9 kts 243°
2026-05-04 07:16 52.44847 -1.73679 325 ft 11 kts 205°
2026-05-04 07:16 52.44794 -1.73702 325 ft 8 kts 193°
2026-05-04 07:16 52.44727 -1.73763 326 ft 5 kts 225°
2026-05-04 07:16 52.44726 -1.73764 326 ft 0 kts 223°
2026-05-04 07:17 52.44727 -1.73764 326 ft 0 kts 223°
2026-05-04 07:18 52.44726 -1.73764 326 ft 0 kts 227°
2026-05-04 07:18 52.44723 -1.73770 326 ft 4 kts 229°
2026-05-04 07:18 52.44694 -1.73837 326 ft 10 kts 231°
2026-05-04 07:19 52.44659 -1.73983 325 ft 17 kts 292°
2026-05-04 07:19 52.44702 -1.74047 324 ft 17 kts 324°
2026-05-04 07:19 52.44863 -1.74225 323 ft 51 kts 326°
2026-05-04 07:19 52.45287 -1.74702 337 ft 90 kts 328°
2026-05-04 07:20 52.45800 -1.75332 586 ft 94 kts 326°
2026-05-04 07:20 52.46362 -1.76042 796 ft 111 kts 326°
2026-05-04 07:20 52.47006 -1.76873 961 ft 123 kts 322°
2026-05-04 07:20 52.47670 -1.77797 1219 ft 121 kts 323°
2026-05-04 07:22 52.52091 -1.83129 3627 ft 110 kts 328°
2026-05-04 07:22 52.52719 -1.83866 3907 ft 111 kts 328°
2026-05-04 07:23 52.53356 -1.84607 4178 ft 113 kts 327°
2026-05-04 07:23 52.53800 -1.85080 4351 ft 113 kts 339°
2026-05-04 07:23 52.54559 -1.85055 4633 ft 112 kts 24°
2026-05-04 07:23 52.55211 -1.84335 4894 ft 116 kts 44°
2026-05-04 07:24 52.55874 -1.83582 5162 ft 117 kts 27°
2026-05-04 07:24 52.56607 -1.82982 5422 ft 119 kts 24°
2026-05-04 07:24 52.57361 -1.82411 5690 ft 120 kts 22°
2026-05-04 07:24 52.58130 -1.81846 5961 ft 121 kts 21°
2026-05-04 07:25 52.58911 -1.81277 6201 ft 126 kts 20°
2026-05-04 07:26 52.65818 -1.76238 6206 ft 170 kts 22°
2026-05-04 07:27 52.66934 -1.75625 6198 ft 169 kts
2026-05-04 07:27 52.68097 -1.75381 6178 ft 168 kts
2026-05-04 07:27 52.69257 -1.75148 6176 ft 168 kts
2026-05-04 07:27 52.70422 -1.74980 6170 ft 167 kts 354°
2026-05-04 07:28 52.71534 -1.75444 6171 ft 165 kts 332°
2026-05-04 07:28 52.72429 -1.76581 6173 ft 162 kts 310°
2026-05-04 07:28 52.73171 -1.77985 6180 ft 162 kts 309°
2026-05-04 07:28 52.73910 -1.79398 6182 ft 163 kts 309°
2026-05-04 07:29 52.74650 -1.80815 6186 ft 163 kts 309°
2026-05-04 07:29 52.75390 -1.82232 6234 ft 160 kts 309°
2026-05-04 07:29 52.76060 -1.83512 6687 ft 135 kts 309°
2026-05-04 07:29 52.76657 -1.84653 6966 ft 132 kts 309°
2026-05-04 07:30 52.77261 -1.85814 7168 ft 133 kts 309°
2026-05-04 07:30 52.77867 -1.86976 7373 ft 134 kts 309°
2026-05-04 07:30 52.78473 -1.88136 7586 ft 133 kts 309°
2026-05-04 07:30 52.79080 -1.89301 7796 ft 134 kts 309°
2026-05-04 07:31 52.79684 -1.90458 8001 ft 135 kts 309°
2026-05-04 07:31 52.80322 -1.91683 8026 ft 147 kts 309°
2026-05-04 07:33 52.85420 -2.01490 8029 ft 164 kts 309°
2026-05-04 07:33 52.86163 -2.02921 8028 ft 164 kts 309°
2026-05-04 07:33 52.86909 -2.04361 8032 ft 165 kts 309°
2026-05-04 07:33 52.87655 -2.05803 8032 ft 165 kts 309°
2026-05-04 07:34 52.88401 -2.07244 8032 ft 165 kts 309°
2026-05-04 07:34 52.89149 -2.08686 8033 ft 165 kts 309°
2026-05-04 07:34 52.89895 -2.10129 8028 ft 165 kts 309°
2026-05-04 07:34 52.90642 -2.11574 8031 ft 165 kts 309°
2026-05-04 07:35 52.91386 -2.13016 8035 ft 164 kts 309°
2026-05-04 07:35 52.92129 -2.14455 8035 ft 164 kts 309°
2026-05-04 07:35 52.92873 -2.15896 8032 ft 165 kts 309°
2026-05-04 07:35 52.93617 -2.17340 8030 ft 165 kts 309°
2026-05-04 07:36 52.94352 -2.18768 8032 ft 165 kts 309°
2026-05-04 07:36 52.95097 -2.20213 8033 ft 165 kts 309°
2026-05-04 07:38 53.00305 -2.30348 8037 ft 165 kts 309°
2026-05-04 07:38 53.01053 -2.31806 8038 ft 166 kts 310°
2026-05-04 07:38 53.01803 -2.33270 8035 ft 166 kts 310°
2026-05-04 07:38 53.02552 -2.34734 8038 ft 166 kts 310°
2026-05-04 07:39 53.03302 -2.36197 8036 ft 167 kts 310°
2026-05-04 07:39 53.04053 -2.37666 8039 ft 167 kts 310°
2026-05-04 07:39 53.04803 -2.39133 8038 ft 167 kts 310°
2026-05-04 07:39 53.05555 -2.40605 8035 ft 167 kts 310°
2026-05-04 07:40 53.06295 -2.42054 8038 ft 167 kts 310°
2026-05-04 07:40 53.07045 -2.43525 8038 ft 167 kts 310°
2026-05-04 07:40 53.07796 -2.44998 8035 ft 167 kts 310°
2026-05-04 07:40 53.08562 -2.46500 8036 ft 168 kts 310°
2026-05-04 07:41 53.09307 -2.47962 8038 ft 168 kts 310°
2026-05-04 07:41 53.10065 -2.49451 8039 ft 169 kts 310°
2026-05-04 07:41 53.10824 -2.50943 8039 ft 169 kts 310°
2026-05-04 07:41 53.11584 -2.52438 8035 ft 169 kts 310°
2026-05-04 07:42 53.12342 -2.53932 8039 ft 169 kts 310°
2026-05-04 07:42 53.13102 -2.55425 8039 ft 169 kts 310°
2026-05-04 07:42 53.13723 -2.57087 7954 ft 173 kts 291°
2026-05-04 07:42 53.13977 -2.59071 7830 ft 177 kts 280°
2026-05-04 07:43 53.14173 -2.61110 7704 ft 179 kts 280°
2026-05-04 07:43 53.14368 -2.63165 7575 ft 180 kts 280°
2026-05-04 07:43 53.14564 -2.65224 7446 ft 180 kts 280°
2026-05-04 07:43 53.14762 -2.67287 7324 ft 180 kts 280°
2026-05-04 07:44 53.14960 -2.69347 7194 ft 180 kts 280°
2026-05-04 07:44 53.15158 -2.71414 7075 ft 180 kts 280°
2026-05-04 07:44 53.15354 -2.73475 6944 ft 180 kts 280°
2026-05-04 07:44 53.15550 -2.75535 6828 ft 180 kts 280°
2026-05-04 07:45 53.15747 -2.77601 6704 ft 180 kts 281°
2026-05-04 07:45 53.15946 -2.79685 6479 ft 185 kts 281°
2026-05-04 07:45 53.16144 -2.81803 6291 ft 185 kts 280°
2026-05-04 07:45 53.16343 -2.83925 6078 ft 186 kts 280°
2026-05-04 07:46 53.16547 -2.86053 5873 ft 186 kts 280°
2026-05-04 07:46 53.16749 -2.88182 5668 ft 186 kts 280°
2026-05-04 07:46 53.16950 -2.90317 5457 ft 186 kts 280°
2026-05-04 07:46 53.17151 -2.92452 5259 ft 186 kts 280°
2026-05-04 07:47 53.17371 -2.94575 5049 ft 186 kts 288°
2026-05-04 07:47 53.18087 -2.96312 4842 ft 183 kts 324°
2026-05-04 07:47 53.19263 -2.96990 4631 ft 181 kts
2026-05-04 07:49 53.25247 -2.87120 3199 ft 172 kts 44°
2026-05-04 07:49 53.26081 -2.85725 2985 ft 168 kts 44°
2026-05-04 07:49 53.26901 -2.84354 2779 ft 166 kts 44°
2026-05-04 07:50 53.27716 -2.82993 2575 ft 165 kts 44°
2026-05-04 07:50 53.28510 -2.81662 2509 ft 157 kts 44°
2026-05-04 07:50 53.29261 -2.80407 2511 ft 149 kts 44°
2026-05-04 07:50 53.29987 -2.79189 2505 ft 147 kts 44°
2026-05-04 07:51 53.30725 -2.78025 2498 ft 146 kts 33°
2026-05-04 07:51 53.31663 -2.77445 2498 ft 144 kts
2026-05-04 07:51 53.32651 -2.77616 2498 ft 144 kts 342°
2026-05-04 07:51 53.33501 -2.78507 2495 ft 146 kts 316°
2026-05-04 07:52 53.34029 -2.79959 2503 ft 149 kts 290°
2026-05-04 07:52 53.34155 -2.81686 2503 ft 150 kts 274°
2026-05-04 07:52 53.34188 -2.83434 2499 ft 151 kts 273°
2026-05-04 07:52 53.34221 -2.85179 2499 ft 152 kts 274°
2026-05-04 07:53 53.34255 -2.86977 2502 ft 153 kts 273°
2026-05-04 07:54 53.34488 -2.99320 2500 ft 150 kts 274°
2026-05-04 07:55 53.34521 -3.01068 2498 ft 150 kts 274°
2026-05-04 07:55 53.34553 -3.02817 2493 ft 150 kts 274°
2026-05-04 07:55 53.34585 -3.04555 2499 ft 149 kts 274°
2026-05-04 07:55 53.34616 -3.06291 2500 ft 149 kts 274°
2026-05-04 07:56 53.34647 -3.08030 2497 ft 150 kts 274°
2026-05-04 07:56 53.34678 -3.09773 2501 ft 150 kts 274°
2026-05-04 07:56 53.34709 -3.11524 2499 ft 151 kts 274°
2026-05-04 07:56 53.34740 -3.13280 2503 ft 151 kts 274°
2026-05-04 07:57 53.34771 -3.15037 2500 ft 151 kts 274°
2026-05-04 07:57 53.34758 -3.16793 2491 ft 153 kts 261°
2026-05-04 07:57 53.34198 -3.18263 2504 ft 154 kts 216°
2026-05-04 07:57 53.33184 -3.18710 2499 ft 153 kts 172°
2026-05-04 07:58 53.32270 -3.17913 2496 ft 149 kts 131°
2026-05-04 07:58 53.31784 -3.16432 2498 ft 148 kts 95°
2026-05-04 07:58 53.31855 -3.14740 2501 ft 145 kts 80°
2026-05-04 07:58 53.31999 -3.13070 2502 ft 144 kts 81°
2026-05-04 07:59 53.32115 -3.11400 2503 ft 144 kts 82°
2026-05-04 07:59 53.32228 -3.09729 2503 ft 144 kts 82°
2026-05-04 07:59 53.32339 -3.08063 2503 ft 144 kts 82°
2026-05-04 07:59 53.32406 -3.06390 2463 ft 147 kts 85°
2026-05-04 08:00 53.32462 -3.04661 2269 ft 151 kts 85°
2026-05-04 08:00 53.32531 -3.02924 2061 ft 152 kts 84°
2026-05-04 08:00 53.32617 -3.01134 1843 ft 152 kts 85°
2026-05-04 08:02 53.33183 -2.88842 372 ft 149 kts 85°
2026-05-04 08:02 53.33236 -2.87694 363 ft 149 kts 84°
2026-05-04 08:02 53.33322 -2.86030 583 ft 142 kts 85°
2026-05-04 08:03 53.33412 -2.84296 437 ft 157 kts 83°
2026-05-04 08:03 53.33633 -2.82521 504 ft 152 kts 72°
2026-05-04 08:03 53.33942 -2.80901 736 ft 141 kts 86°
2026-05-04 08:03 53.33776 -2.79354 1061 ft 131 kts 97°
2026-05-04 08:04 53.33747 -2.77874 1371 ft 123 kts 88°
2026-05-04 08:04 53.33788 -2.76473 1685 ft 118 kts 86°
2026-05-04 08:04 53.33844 -2.75119 1998 ft 116 kts 85°
2026-05-04 08:04 53.33904 -2.73786 2306 ft 113 kts 84°
2026-05-04 08:05 53.33962 -2.72436 2489 ft 127 kts 87°
2026-05-04 08:05 53.33625 -2.70968 2506 ft 148 kts 131°
2026-05-04 08:05 53.32667 -2.70214 2506 ft 162 kts 175°
2026-05-04 08:05 53.31585 -2.70728 2505 ft 167 kts 216°
2026-05-04 08:06 53.30942 -2.72300 2503 ft 167 kts 257°
2026-05-04 08:06 53.31024 -2.74184 2513 ft 163 kts 289°
2026-05-04 08:06 53.31309 -2.76024 2499 ft 164 kts 279°
2026-05-04 08:06 53.31328 -2.77939 2499 ft 165 kts 270°
2026-05-04 08:08 53.33908 -2.73665 2502 ft 160 kts 86°
2026-05-04 08:08 53.34188 -2.71894 2490 ft 160 kts 55°
2026-05-04 08:10 53.34334 -2.80831 2495 ft 167 kts 252°
2026-05-04 08:11 53.34156 -2.82732 2500 ft 165 kts 271°
2026-05-04 08:11 53.34238 -2.86575 2497 ft 165 kts 274°
2026-05-04 08:11 53.34281 -2.88494 2499 ft 165 kts 274°
2026-05-04 08:12 53.34320 -2.90411 2497 ft 165 kts 274°
2026-05-04 08:12 53.34356 -2.92327 2497 ft 164 kts 274°
2026-05-04 08:12 53.34392 -2.94232 2495 ft 164 kts 274°
2026-05-04 08:12 53.34429 -2.96135 2496 ft 164 kts 274°
2026-05-04 08:13 53.34465 -2.98044 2499 ft 165 kts 274°
2026-05-04 08:13 53.34500 -2.99977 2499 ft 166 kts 274°
2026-05-04 08:13 53.34536 -3.01911 2498 ft 167 kts 274°
2026-05-04 08:13 53.34573 -3.03845 2497 ft 166 kts 274°
2026-05-04 08:14 53.34611 -3.05766 2496 ft 165 kts 274°
2026-05-04 08:14 53.34645 -3.07690 2501 ft 165 kts 274°
2026-05-04 08:14 53.34681 -3.09612 2497 ft 166 kts 274°
2026-05-04 08:16 53.34924 -3.23119 2497 ft 165 kts 274°
2026-05-04 08:16 53.34956 -3.25040 2499 ft 165 kts 274°
2026-05-04 08:16 53.34988 -3.26954 2499 ft 164 kts 274°
2026-05-04 08:17 53.35026 -3.28872 2497 ft 165 kts 277°
2026-05-04 08:17 53.35498 -3.30567 2506 ft 164 kts 317°
2026-05-04 08:17 53.36510 -3.31399 2502 ft 165 kts 355°
2026-05-04 08:17 53.37585 -3.30953 2494 ft 161 kts 35°
2026-05-04 08:19 53.34881 -3.19779 2507 ft 164 kts 123°
2026-05-04 08:19 53.34235 -3.18212 2506 ft 163 kts 123°
2026-05-04 08:20 53.33589 -3.16650 2503 ft 163 kts 122°
2026-05-04 08:20 53.32945 -3.15091 2504 ft 162 kts 123°
2026-05-04 08:20 53.32340 -3.13500 2497 ft 162 kts 112°
2026-05-04 08:20 53.32114 -3.11687 2495 ft 160 kts 88°
2026-05-04 08:21 53.32236 -3.09846 2494 ft 159 kts 84°
2026-05-04 08:21 53.32309 -3.08000 2493 ft 159 kts 85°
2026-05-04 08:21 53.32382 -3.06147 2426 ft 163 kts 84°
2026-05-04 08:21 53.32474 -3.04230 2207 ft 171 kts 84°
2026-05-04 08:22 53.32566 -3.02194 1970 ft 175 kts 85°
2026-05-04 08:22 53.32660 -3.00181 1730 ft 176 kts 85°
2026-05-04 08:24 53.33282 -2.86818 529 ft 150 kts 85°
2026-05-04 08:24 53.33375 -2.85080 592 ft 150 kts 85°
2026-05-04 08:24 53.33448 -2.83384 782 ft 144 kts 85°
2026-05-04 08:24 53.33510 -2.81732 969 ft 141 kts 85°
2026-05-04 08:25 53.33568 -2.80110 1151 ft 139 kts 86°
2026-05-04 08:25 53.33647 -2.78511 1332 ft 138 kts 84°
2026-05-04 08:25 53.33741 -2.76926 1517 ft 137 kts 84°
2026-05-04 08:25 53.33824 -2.75331 1706 ft 139 kts 85°
2026-05-04 08:26 53.33899 -2.73778 2107 ft 123 kts 84°
2026-05-04 08:27 53.31356 -2.76122 2496 ft 166 kts 277°
2026-05-04 08:28 53.31361 -2.78046 2496 ft 165 kts 271°
2026-05-04 08:28 53.31702 -2.79820 2495 ft 162 kts 310°
2026-05-04 08:28 53.32631 -2.80774 2498 ft 159 kts 351°
2026-05-04 08:28 53.33687 -2.80444 2503 ft 158 kts 31°
2026-05-04 08:29 53.34337 -2.79008 2508 ft 159 kts 72°
2026-05-04 08:29 53.34272 -2.77163 2511 ft 163 kts 106°
2026-05-04 08:29 53.33959 -2.75341 2507 ft 163 kts 98°
2026-05-04 08:31 53.30755 -2.74155 2505 ft 165 kts 307°
2026-05-04 08:33 53.34221 -2.85132 2500 ft 166 kts 273°
2026-05-04 08:33 53.34254 -2.87031 2497 ft 165 kts 273°
2026-05-04 08:35 53.34511 -3.00476 2502 ft 171 kts 274°
2026-05-04 08:35 53.34548 -3.02467 2501 ft 171 kts 274°
2026-05-04 08:35 53.34584 -3.04447 2499 ft 169 kts 274°
2026-05-04 08:35 53.34617 -3.06406 2497 ft 168 kts 273°
2026-05-04 08:37 53.34466 -3.17954 2496 ft 168 kts 235°
2026-05-04 08:37 53.33518 -3.19033 2495 ft 168 kts 194°
2026-05-04 08:37 53.32399 -3.18864 2497 ft 165 kts 153°
2026-05-04 08:38 53.31616 -3.17546 2498 ft 161 kts 112°
2026-05-04 08:38 53.31536 -3.15732 2500 ft 158 kts 75°
2026-05-04 08:38 53.31807 -3.13949 2501 ft 158 kts 73°
2026-05-04 08:40 53.32637 -3.00657 1775 ft 179 kts 85°
2026-05-04 08:40 53.32732 -2.98600 1535 ft 176 kts 84°
2026-05-04 08:40 53.32828 -2.96579 1287 ft 171 kts 85°
2026-05-04 08:41 53.32917 -2.94637 1057 ft 165 kts 85°
2026-05-04 08:41 53.32975 -2.93383 903 ft 161 kts 84°
2026-05-04 08:41 53.33032 -2.92187 759 ft 159 kts 84°
2026-05-04 08:42 53.33050 -2.91879 714 ft 159 kts 83°
2026-05-04 08:42 53.33089 -2.91296 616 ft 159 kts 83°
2026-05-04 08:42 53.33167 -2.89417 518 ft 160 kts 86°
2026-05-04 08:42 53.33262 -2.87561 489 ft 161 kts 84°
2026-05-04 08:43 53.33369 -2.85647 379 ft 164 kts 83°
2026-05-04 08:43 53.33514 -2.83856 649 ft 148 kts 82°
2026-05-04 08:43 53.33615 -2.82022 374 ft 163 kts 88°
2026-05-04 08:43 53.33620 -2.80180 373 ft 164 kts 89°
2026-05-04 08:44 53.33669 -2.78405 729 ft 142 kts 85°
2026-05-04 08:44 53.33737 -2.76833 1125 ft 130 kts 84°